Location: Bailen
(14.1842°N, 120.7958°E)
Time: 17:27:16
(UTC+00:00)

Nadezhda 1 Rocket - Pass Details

Date: 12 January 2026
Orbit: 941 x 1004 km, 83.0° (Epoch: 17 February)

Event Time Altitude Azimuth Distance (km) Brightness Sun altitude
Exits shadow 20:44:59 12° 355° (N) 2,566 6.0 -23.5°
Maximum altitude 20:50:50 86° 268° (W) 989 3.9 -22.2°
Drops below altitude 10° 20:57:09 10° 179° (S) 2,751 6.6 -20.7°
Sets 20:59:41 0° 178° (S) 3,705 7.3 -20.2°
